TimeMST,TemperatureF,Dew PointF,Humidity,Sea Level PressureIn,VisibilityMPH,Wind Direction,Wind SpeedMPH,Gust SpeedMPH,PrecipitationIn,Events,Conditions,WindDirDegrees,DateUTC
12:53 AM,24.1,19.0,81,30.03,10.0,Calm,Calm,-,N/A,,Clear,0,2012-11-30 07:53:00
1:53 AM,23.0,19.0,85,30.02,10.0,Calm,Calm,-,N/A,,Clear,0,2012-11-30 08:53:00
2:53 AM,26.1,21.9,84,30.03,10.0,SE,6.9,-,N/A,,Clear,130,2012-11-30 09:53:00
3:53 AM,28.0,23.0,81,30.01,10.0,Calm,Calm,-,N/A,,Clear,0,2012-11-30 10:53:00
4:53 AM,28.9,25.0,85,30.04,10.0,SE,4.6,-,N/A,,Clear,140,2012-11-30 11:53:00
5:53 AM,30.9,24.1,76,30.03,10.0,South,4.6,-,N/A,,Clear,170,2012-11-30 12:53:00
6:53 AM,30.9,23.0,72,30.06,10.0,SSE,4.6,-,N/A,,Clear,160,2012-11-30 13:53:00
7:53 AM,28.9,23.0,78,30.05,10.0,SSE,8.1,-,N/A,,Clear,150,2012-11-30 14:53:00
8:53 AM,41.0,28.9,62,30.04,10.0,South,4.6,-,N/A,,Clear,180,2012-11-30 15:53:00
9:53 AM,55.9,25.0,30,29.99,10.0,SSW,11.5,19.6,N/A,,Clear,200,2012-11-30 16:53:00
10:53 AM,59.0,24.1,26,29.96,10.0,SSW,13.8,-,N/A,,Clear,200,2012-11-30 17:53:00
11:53 AM,61.0,23.0,23,29.92,10.0,SSW,24.2,-,N/A,,Clear,210,2012-11-30 18:53:00
12:53 PM,63.0,21.9,21,29.87,10.0,SSW,23.0,-,N/A,,Clear,200,2012-11-30 19:53:00
1:53 PM,63.0,19.0,18,29.84,10.0,South,19.6,24.2,N/A,,Clear,190,2012-11-30 20:53:00
2:53 PM,59.0,21.0,23,29.83,10.0,South,16.1,-,N/A,,Clear,190,2012-11-30 21:53:00
3:53 PM,48.0,21.0,34,29.85,10.0,North,-9999.0,-,N/A,,Clear,0,2012-11-30 22:53:00
4:53 PM,45.0,21.9,40,29.83,10.0,SSE,9.2,-,N/A,,Clear,150,2012-11-30 23:53:00
5:53 PM,42.1,19.9,41,29.84,10.0,SSE,10.4,-,N/A,,Clear,150,2012-12-01 00:53:00
6:53 PM,44.1,19.9,38,29.82,10.0,South,12.7,-,N/A,,Clear,170,2012-12-01 01:53:00
7:53 PM,39.0,19.9,46,29.84,10.0,SSE,10.4,-,N/A,,Clear,160,2012-12-01 02:53:00
8:53 PM,41.0,19.9,43,29.81,10.0,SSE,4.6,-,N/A,,Clear,150,2012-12-01 03:53:00
9:53 PM,37.9,21.0,51,29.78,10.0,SSE,8.1,-,N/A,,Clear,160,2012-12-01 04:53:00
10:53 PM,36.0,21.0,55,29.78,10.0,West,6.9,-,N/A,,Clear,270,2012-12-01 05:53:00
11:53 PM,37.4,21.2,52,29.81,10.0,West,4.6,-,N/A,,Clear,260,2012-12-01 06:53:00